Change the Weather History Date:

Monday, March 17, 2014

  Actual Average Record
Temperature  
Mean Temperature 77 °F -  
Max Temperature 81 °F - - ()
Min Temperature 73 °F - - ()
Cooling Degree Days 12    
Growing Degree Days 27 (Base 50)    
Moisture  
Dew Point 72 °F    
Average Humidity 81    
Maximum Humidity 94    
Minimum Humidity 68    
Precipitation  
Precipitation 0.00 in - - ()
Sea Level Pressure  
Sea Level Pressure 29.97 in    
Wind  
Wind Speed 5 mph ()    
Max Wind Speed 14 mph    
Max Gust Speed -    
Visibility 6.2 miles    
Events      
T = Trace of Precipitation, MM = Missing Value Source: Averaged Metar Reports

Daily Weather History Graph

Daily Weather History Graph

Search for Another Location

Airport or City:

Trip Planner

Search our weather history database for the weather conditions in past years. The results will help you decide how hot, cold, wet, or windy it might be!

Date:

Astronomy

Mar. 17, 2014 Rise Set
Actual Time 6:06 AM AEST 6:18 PM AEST
Civil Twilight 5:44 AM AEST 6:40 PM AEST
Nautical Twilight 5:19 AM AEST 7:05 PM AEST
Astronomical Twilight 4:53 AM AEST 7:31 PM AEST
Moon 6:31 PM AEST (3/17) 6:15 AM AEST (3/17)
Length of Visible Light 12h 55m
Length of Day
12h 11m
Full, 100% of the Moon is Illuminated
Mar 17
Full
Mar 24
Last Quarter
Mar 31
New
Apr 7
First Quarter
Apr 15
Full

Hourly Weather History & Observations

Time (AEST) Temp. Heat Index Dew Point Humidity Pressure Visibility Wind Dir Wind Speed Gust Speed Precip Events Conditions
12:00 AM 74 °F - 70 °F 84% 29.98 in - NNW 4.6 mph - -  
12:00 AM 73.4 °F - 69.8 °F 88% 29.98 in 6.2 mi NNW 4.6 mph - N/A   Unknown
12:30 AM 73.4 °F - 71.6 °F 94% 29.98 in 6.2 mi North 3.5 mph - N/A   Unknown
1:00 AM 75.2 °F - 69.8 °F 83% 29.95 in 6.2 mi North 5.8 mph - N/A   Unknown
1:30 AM 75.2 °F - 69.8 °F 83% 29.95 in 6.2 mi North 3.5 mph - N/A   Unknown
2:00 AM 73.4 °F - 71.6 °F 94% 29.95 in 6.2 mi NNW 1.2 mph - N/A   Unknown
2:30 AM 73.4 °F - 69.8 °F 88% 29.95 in 6.2 mi Calm Calm - N/A   Unknown
3:00 AM 74 °F - 70 °F 82% 29.94 in - Calm Calm - -  
3:00 AM 73.4 °F - 69.8 °F 88% 29.95 in 6.2 mi Calm Calm - N/A   Unknown
3:30 AM 75.2 °F - 69.8 °F 83% 29.95 in 6.2 mi Calm Calm - N/A   Unknown
4:00 AM 73.4 °F - 71.6 °F 94% 29.95 in 6.2 mi Calm Calm - N/A   Unknown
4:30 AM 73.4 °F - 71.6 °F 94% 29.95 in 6.2 mi Calm Calm - N/A   Unknown
5:00 AM 73.4 °F - 69.8 °F 88% 29.95 in 6.2 mi Calm Calm - N/A   Unknown
5:30 AM 73.4 °F - 71.6 °F 94% 29.98 in 6.2 mi Calm Calm - N/A   Unknown
6:00 AM 74 °F - 72 °F 91% 29.97 in - Calm Calm - -  
6:00 AM 73.4 °F - 71.6 °F 94% 29.98 in 6.2 mi Calm Calm - N/A   Unknown
6:30 AM 73.4 °F - 71.6 °F 94% 29.98 in 6.2 mi Calm Calm - N/A   Unknown
7:00 AM 75.2 °F - 71.6 °F 89% 29.98 in 6.2 mi Calm Calm - N/A   Unknown
7:30 AM 75.2 °F - 71.6 °F 89% 30.01 in 6.2 mi Calm Calm - N/A   Unknown
8:00 AM 78.8 °F - 71.6 °F 78% 30.01 in 6.2 mi ESE 1.2 mph - N/A   Unknown
8:30 AM 78.8 °F - 71.6 °F 78% 30.01 in 6.2 mi South 2.3 mph - N/A   Unknown
9:00 AM 80 °F - 72 °F 71% 30.02 in - SE 5.8 mph - -  
9:00 AM 80.6 °F 84.6 °F 71.6 °F 74% 30.01 in 6.2 mi SE 5.8 mph - N/A   Unknown
9:30 AM 78.8 °F - 71.6 °F 78% 30.01 in 6.2 mi SE 5.8 mph - N/A   Unknown
10:00 AM 80.6 °F 84.6 °F 71.6 °F 74% 30.01 in 6.2 mi SE 5.8 mph - N/A   Unknown
10:30 AM 80.6 °F 84.6 °F 71.6 °F 74% 30.01 in 6.2 mi SSE 5.8 mph - N/A   Unknown
11:00 AM 80.6 °F 84.6 °F 71.6 °F 74% 30.01 in 6.2 mi SSE 9.2 mph - N/A   Unknown
11:30 AM 80.6 °F 85.4 °F 73.4 °F 79% 30.01 in 6.2 mi SE 9.2 mph - N/A   Unknown
12:00 PM 81 °F - 74 °F 73% 29.98 in - SE 9.2 mph - -  
12:00 PM 80.6 °F 85.4 °F 73.4 °F 79% 29.98 in 6.2 mi SE 9.2 mph - N/A   Unknown
12:30 PM 80.6 °F 85.4 °F 73.4 °F 79% 29.98 in 6.2 mi SE 9.2 mph - N/A   Unknown
1:00 PM 80.6 °F 85.4 °F 73.4 °F 79% 29.95 in 6.2 mi SE 9.2 mph - N/A   Unknown
1:30 PM 80.6 °F 85.4 °F 73.4 °F 79% 29.95 in 6.2 mi SE 8.1 mph - N/A   Unknown
2:00 PM 80.6 °F 85.4 °F 73.4 °F 79% 29.95 in 6.2 mi SE 9.2 mph - N/A   Unknown
2:30 PM 80.6 °F 85.4 °F 73.4 °F 79% 29.92 in 6.2 mi ESE 9.2 mph - N/A   Unknown
3:00 PM 81 °F - 72 °F 68% 29.93 in - East 11.5 mph - -  
3:00 PM 80.6 °F 84.6 °F 71.6 °F 74% 29.92 in 6.2 mi East 11.5 mph - N/A   Unknown
3:30 PM 80.6 °F 84.6 °F 71.6 °F 74% 29.92 in 6.2 mi East 13.8 mph - N/A   Unknown
4:00 PM 80.6 °F 84.6 °F 71.6 °F 74% 29.92 in 6.2 mi East 13.8 mph - N/A   Unknown
4:30 PM 80.6 °F 84.6 °F 71.6 °F 74% 29.92 in 6.2 mi East 13.8 mph - N/A   Unknown
5:00 PM 78.8 °F - 69.8 °F 74% 29.92 in 6.2 mi East 12.7 mph - N/A   Unknown
5:30 PM 78.8 °F - 71.6 °F 78% 29.95 in 6.2 mi East 13.8 mph - N/A   Unknown
6:00 PM 79 °F - 71 °F 70% 29.95 in - East 11.5 mph - -  
6:00 PM 78.8 °F - 71.6 °F 78% 29.95 in 6.2 mi East 11.5 mph - N/A   Unknown
6:30 PM 78.8 °F - 71.6 °F 78% 29.95 in 6.2 mi East 10.4 mph - N/A   Unknown
7:00 PM 78.8 °F - 71.6 °F 78% 29.98 in 6.2 mi East 10.4 mph - N/A   Unknown
7:30 PM 78.8 °F - 71.6 °F 78% 29.98 in 6.2 mi East 9.2 mph - N/A   Unknown
8:00 PM 78.8 °F - 71.6 °F 78% 29.98 in 6.2 mi ENE 6.9 mph - N/A   Unknown
8:30 PM 77.0 °F - 71.6 °F 83% 30.01 in 6.2 mi ENE 6.9 mph - N/A   Unknown
9:00 PM 77 °F - 71 °F 78% 30.00 in - ENE 5.8 mph - -  
9:00 PM 77.0 °F - 71.6 °F 83% 30.01 in 6.2 mi ENE 5.8 mph - N/A   Unknown
9:30 PM 77.0 °F - 71.6 °F 83% 30.01 in 6.2 mi ENE 5.8 mph - N/A   Unknown
10:00 PM 78.8 °F - 73.4 °F 83% 30.01 in 6.2 mi East 12.7 mph - N/A   Unknown
10:30 PM 77.0 °F - 71.6 °F 83% 30.01 in 6.2 mi East 11.5 mph - N/A   Unknown
11:00 PM 77.0 °F - 71.6 °F 83% 30.01 in 6.2 mi East 11.5 mph - N/A   Unknown
11:30 PM 77.0 °F - 71.6 °F 83% 30.01 in 6.2 mi East 11.5 mph - N/A   Unknown